{"data":{"norad_id":66159,"epoch":"2026-05-25T01:06:09.659232Z","epoch_age_seconds":71310,"freshness":"FRESH","line1":"1 66159U 25240P   26145.04594513  .00026409  00000+0  78995-3 0  9990","line2":"2 66159  53.1606  67.8137 0001110   0.5468 359.5536 15.34401290 33683","mean_motion":15.3440129,"eccentricity":0.000111,"inclination_deg":53.1606,"raan_deg":67.8137,"arg_perigee_deg":0.5468,"mean_anomaly_deg":359.5536,"bstar":0.00078995,"rev_number":3368,"period_min":93.847679181761,"perigee_km":461.94007321687,"apogee_km":463.45873889901,"semimajor_km":6840.8364060579,"source":"CELESTRAK","updated_at":"2026-05-25T13:38:21.071319Z"}}